Bowling Green, KY

7:50 AM CDT on April 23, 2017 (GMT -0500)
Bowling Green-Warren County Regional

Weather History for KBWG - March, 2013

Change the Weather History Date:

Sunday, March 3, 2013

  Actual Average Record
Temperature  
Mean Temperature 34 °F 44 °F  
Max Temperature 41 °F 55 °F 80 °F (1976)
Min Temperature 26 °F 34 °F 1 °F (1980)
Degree Days  
Heating Degree Days 31 21  
Month to date heating degree days 91 63  
Since 1 July heating degree days 2986 3261  
Cooling Degree Days 0 0  
Month to date cooling degree days 0 0  
Year to date cooling degree days 0 0  
Moisture  
Dew Point 20 °F    
Average Humidity 58    
Maximum Humidity 81    
Minimum Humidity 34    
Precipitation  
Precipitation T in 0.13 in 2.45 in (1940)
Month to date precipitation 0.10 0.41  
Year to date precipitation 7.79 7.98  
Snow  
Snow T in 0.00 in 3.40 in (2014)
Month to date snowfall 1.4 0.1  
Since 1 July snowfall 2.7 7.9  
Snow Depth T in    
Sea Level Pressure  
Sea Level Pressure 30.15 in    
Wind  
Wind Speed 5 mph (WNW)    
Max Wind Speed 13 mph    
Max Gust Speed 17 mph    
Visibility 10 miles    
Events Snow    
T = Trace of Precipitation, MM = Missing Value Source: NWS Daily Summary

Daily Weather History Graph

Daily Weather History Graph

Search for Another Location

Airport or City:

Trip Planner

Search our weather history database for the weather conditions in past years. The results will help you decide how hot, cold, wet, or windy it might be!

Date:

Astronomy

Mar. 03, 2013 Rise Set
Actual Time 6:13 AM CST 5:42 PM CST
Civil Twilight 5:47 AM CST 6:08 PM CST
Nautical Twilight 5:17 AM CST 6:38 PM CST
Astronomical Twilight 4:47 AM CST 7:08 PM CST
Moon No Moon Rise 9:37 AM CST (3/3)
Length of Visible Light 12h 20m
Length of Day
11h 28m
Waning Gibbous, 63% of the Moon is Illuminated
Mar 3
Waning Gibbous
Mar 4
Last Quarter
Mar 11
New
Mar 19
First Quarter
Mar 27
Full

Hourly Weather History & Observations

Time (CST) Temp. Windchill Dew Point Humidity Pressure Visibility Wind Dir Wind Speed Gust Speed Precip Events Conditions
12:03 AM 30.2 °F 24.3 °F 24.8 °F 80% 30.15 in 4.0 mi NW 5.8 mph - 0.00 in Snow Light Snow
12:45 AM 30.2 °F 24.3 °F 24.8 °F 80% 30.15 in 7.0 mi WNW 5.8 mph - 0.00 in   Overcast
12:53 AM 30.0 °F 24.1 °F 25.0 °F 82% 30.17 in 7.0 mi WNW 5.8 mph - 0.00 in Snow Light Snow
1:53 AM 30.0 °F 24.1 °F 24.1 °F 79% 30.16 in 10.0 mi WNW 5.8 mph - 0.00 in   Overcast
2:53 AM 30.0 °F 25.2 °F 24.1 °F 79% 30.15 in 10.0 mi NW 4.6 mph - 0.00 in   Overcast
3:53 AM 28.9 °F 23.9 °F 23.0 °F 78% 30.15 in 10.0 mi NW 4.6 mph - N/A   Overcast
5:53 AM 28.0 °F 22.8 °F 19.9 °F 72% 30.16 in 10.0 mi WNW 4.6 mph - N/A   Overcast
6:53 AM 27.0 °F 23.0 °F 21.0 °F 78% 30.17 in 10.0 mi West 3.5 mph - N/A   Overcast
7:53 AM 28.9 °F 21.1 °F 19.9 °F 69% 30.17 in 10.0 mi WNW 8.1 mph - N/A   Mostly Cloudy
8:49 AM 30.2 °F 22.6 °F 19.4 °F 64% 30.17 in 10.0 mi WNW 8.1 mph - N/A   Mostly Cloudy
8:53 AM 30.0 °F 22.4 °F 21.0 °F 69% 30.19 in 10.0 mi NW 8.1 mph - N/A   Scattered Clouds
9:53 AM 33.1 °F 26.9 °F 19.9 °F 59% 30.18 in 10.0 mi WNW 6.9 mph - N/A   Scattered Clouds
10:53 AM 35.1 °F 30.1 °F 21.0 °F 57% 30.17 in 10.0 mi Variable 5.8 mph - N/A   Scattered Clouds
11:53 AM 36.0 °F 31.1 °F 19.9 °F 52% 30.16 in 10.0 mi Variable 5.8 mph - N/A   Partly Cloudy
12:53 PM 37.9 °F 31.5 °F 19.0 °F 47% 30.14 in 10.0 mi West 9.2 mph - N/A   Scattered Clouds
1:53 PM 39.0 °F 32.8 °F 17.1 °F 41% 30.12 in 10.0 mi West 9.2 mph - N/A   Clear
2:53 PM 39.9 °F 35.1 °F 17.1 °F 40% 30.12 in 10.0 mi WNW 6.9 mph - N/A   Clear
3:53 PM 41.0 °F 36.4 °F 16.0 °F 36% 30.11 in 10.0 mi NW 6.9 mph - N/A   Clear
4:53 PM 39.9 °F 37.8 °F 15.1 °F 36% 30.11 in 10.0 mi Variable 3.5 mph - N/A   Clear
5:53 PM 37.0 °F 33.3 °F 15.1 °F 41% 30.11 in 10.0 mi WNW 4.6 mph - N/A   Clear
6:53 PM 36.0 °F - 14.0 °F 41% 30.12 in 10.0 mi Calm Calm - N/A   Clear
7:53 PM 34.0 °F - 14.0 °F 44% 30.13 in 10.0 mi Calm Calm - N/A   Clear
8:53 PM 28.0 °F - 17.1 °F 63% 30.13 in 10.0 mi Calm Calm - N/A   Clear
9:53 PM 28.0 °F - 18.0 °F 66% 30.13 in 10.0 mi Calm Calm - N/A   Clear
10:53 PM 26.1 °F - 19.0 °F 75% 30.13 in 10.0 mi Calm Calm - N/A   Clear
11:53 PM 27.0 °F - 19.9 °F 75% 30.15 in 10.0 mi Calm Calm - N/A   Clear